Hourly Weather Roundup
Issued by NWS Central Illinois

Home | Current Version | Previous Version | Text Only | Print | Product List | Glossary On
Versions: 1 2 3 4 5 6 7 8 9 10 11 12 13 14 15 16 17 18 19 20 21 22 23 24 25 26 27 28 29 30 31 32 33 34 35 36 37 38 39 40 41 42 43 44 45 46 47 48 49 50
000
NZUS43 KILX 300110
HWRILX

AREA WEATHER ROUNDUP
NATIONAL WEATHER SERVICE, LINCOLN IL
800 PM CDT FRI AUG 29 2014


CITY           SKY/WX    TMP DP  RH WIND       PRES   REMARKS
BLOOMINGTON    PTCLDY    76  69  79 S9        29.90S
CHAMPAIGN      PTCLDY    76  70  82 SE6       29.91R
DECATUR        CLEAR     79  71  76 S8        29.90R HX  82
FLORA          CLEAR     76  68  74 S6        29.93R
GALESBURG      TSTM      71  68  89 S10G16    29.86R
JACKSONVILLE   CLOUDY    73  71  93 SE6       29.90S
LACON          MOCLDY    74  69  86 CALM      29.84S
LAWRENCEVILLE  CLEAR     78  74  87 SE6       29.93S HX  81
LITCHFIELD     MOCLDY    79  69  70 S10       29.89R HX  81
$$


CITY           SKY/WX    TMP DP  RH WIND       PRES   REMARKS
LINCOLN        CLEAR     77  70  79 S7        29.84S
MACOMB         CLOUDY    70  70 100 SE6       29.87R
MATTOON        CLEAR     79  67  66 S7        29.91R HX  81
MT CARMEL AP   CLEAR     81  73  78 CALM      29.93R HX  85
OLNEY-NOBLE AP CLEAR     77  70  78 CALM      29.93R
PARIS          PTCLDY    73  71  93 SE3       29.94R
PEORIA         MOCLDY    77  70  79 SE3       29.84F
PONTIAC        MOCLDY    77  75  94 SE5       29.87F FOG
RANTOUL        MOCLDY    78  70  78 SE7       29.92R
ROBINSON       CLEAR     77  73  88 S6        29.94R
SPRINGFIELD    CLOUDY    82  69  64 S10       29.86S HX  85
TAYLORVILLE    CLEAR     77  70  78 SE8       29.88S
$$

...REGIONAL REPORTS...


CITY           SKY/WX    TMP DP  RH WIND       PRES   REMARKS
CHICAGO O`HARE MOCLDY    80  68  66 S10       29.88S HX  83
KANKAKEE       PTCLDY    76  70  82 SE8       29.90S
MOLINE         RAIN      78  71  79 S12       29.80F HX  80
MOUNT VERNON   PTCLDY    79  66  65 SE5       29.93R HX  81
PITTSFIELD     CLOUDY    74  71  91 CALM      29.87S FOG
QUINCY         MOCLDY    72  70  93 SE7       29.84S
ROCKFORD       MOCLDY    78  71  79 SE15      29.86S THUNDER HX  80
$$


CITY           SKY/WX    TMP DP  RH WIND       PRES   REMARKS
BURLINGTON     CLOUDY    72  71  97 S7        29.82F
CEDAR RAPIDS   MOCLDY    69  69 100 S6        29.78F
DES MOINES     MOCLDY    72  69  90 S7        29.77S
KIRKSVILLE     MOCLDY    75  70  84 SW5       29.83S
OTTUMWA        CLOUDY    70  69  97 S7        29.79
ST LOUIS       CLOUDY    85  67  54 SW8       29.88R HX  87
$$


CITY           SKY/WX    TMP DP  RH WIND       PRES   REMARKS
TERRE HAUTE    PTCLDY    75  70  84 SE6       29.94R
EVANSVILLE     CLEAR     83  65  54 SE5       29.95R HX  85
INDIANAPOLIS   MOCLDY    80  69  69 S9        29.96R HX  83
LAFAYETTE      CLOUDY    70  67  90 S3        29.92F
MADISON        CLOUDY    80  70  71 S9        29.82S HX  83
MILWAUKEE      PTCLDY    76  69  79 S14       29.87R
$$





USA.gov is the U.S. government's official web portal to all federal, state and local government web resources and services.